Date String (YYYY-MM-DD hh:mm:ss) UTC,Instrument flags,Ambient pressure (hPa),Sample flow (lpm),Bypass flow (lpm),Sample temperature (°C),Ambient temperature (°C),ASC tube jacket temperature (°C),LED temperature (°C),Box temperature (°C),Sample RH (%),Span deviation,Mass concentration (μg/m³),Mass concentration (μg/m³),Mass concentration (μg/m³)
DateTimeUTC,F1_M11,P_M11,Q1_M11,Q2_M11,T1_M11,T2_M11,T3_M11,T4_M11,T5_M11,U1_M11,ZSPAN_M11,X0_M11,X2_M11,X1_M11
2021-12-13 07:00:00,,0823.9,5.00,0.00,25.2,24.3,00.0,34.2,26.9,05.3,0000.0,0001.51,0000.85,0000.62
2021-12-13 07:01:00,,0823.9,4.99,0.00,25.2,24.3,00.0,34.2,26.9,05.3,0000.0,0001.50,0000.83,0000.62
2021-12-13 07:02:00,,0824.0,4.99,0.00,25.2,24.3,00.0,34.2,26.9,05.3,0000.0,0002.01,0000.82,0000.62
2021-12-13 07:03:00,,0824.0,5.02,0.00,25.2,24.3,00.0,34.2,26.9,05.3,0000.0,0002.31,0000.81,0000.61
2021-12-13 07:04:00,,0824.0,4.98,0.00,25.2,24.3,00.0,34.2,26.9,05.3,0000.0,0002.24,0000.78,0000.60
2021-12-13 07:05:00,,0824.0,5.02,0.00,25.2,24.3,00.0,34.2,26.9,05.3,0000.0,0002.22,0000.77,0000.60
2021-12-13 07:06:00,,0824.0,4.99,0.00,25.2,24.3,00.0,34.2,26.9,05.3,0000.0,0002.04,0000.72,0000.59
2021-12-13 07:07:00,,0824.0,5.00,0.00,25.2,24.3,00.0,34.1,26.9,05.3,0000.0,0001.96,0000.70,0000.59
2021-12-13 07:08:00,,0823.9,5.00,0.00,25.2,24.3,00.0,34.2,26.9,05.3,0000.0,0001.95,0000.69,0000.58
2021-12-13 07:09:00,,0824.0,5.01,0.00,25.2,24.3,00.0,34.2,26.9,05.3,0000.0,0001.91,0000.71,0000.57
2021-12-13 07:10:00,,0824.0,5.00,0.00,25.2,24.3,00.0,34.2,26.9,05.3,0000.0,0002.01,0000.75,0000.57
2021-12-13 07:11:00,,0824.0,5.01,0.00,25.2,24.3,00.0,34.2,26.9,05.3,0000.0,0001.91,0000.75,0000.57
2021-12-13 07:12:00,,0824.0,5.01,0.00,25.2,24.3,00.0,34.2,26.9,05.3,0000.0,0001.89,0000.75,0000.56
2021-12-13 07:13:00,,0824.0,5.01,0.00,25.2,24.3,00.0,34.1,26.9,05.3,0000.0,0001.35,0000.74,0000.56
2021-12-13 07:14:00,,0824.0,5.00,0.00,25.1,24.3,00.0,34.1,26.9,05.3,0000.0,0001.02,0000.73,0000.56
2021-12-13 07:15:00,,0824.0,5.00,0.00,25.1,24.3,00.0,34.1,26.9,05.3,0000.0,0001.11,0000.75,0000.56
2021-12-13 07:16:00,,0824.0,5.01,0.00,25.1,24.3,00.0,34.1,26.9,05.3,0000.0,0001.53,0000.76,0000.55
2021-12-13 07:17:00,,0824.0,4.99,0.00,25.1,24.3,00.0,34.1,26.9,05.3,0000.0,0001.90,0000.78,0000.56
2021-12-13 07:18:00,,0824.0,5.00,0.00,25.2,24.3,00.0,34.1,26.9,05.3,0000.0,0002.07,0000.82,0000.56
2021-12-13 07:19:00,,0824.0,5.01,0.00,25.2,24.3,00.0,34.1,26.9,05.3,0000.0,0002.35,0000.85,0000.56
2021-12-13 07:20:00,,0824.0,5.00,0.00,25.2,24.3,00.0,34.1,26.9,05.3,0000.0,0002.58,0000.86,0000.56
2021-12-13 07:21:00,,0823.9,5.01,0.00,25.2,24.3,00.0,34.1,26.9,05.3,0000.0,0002.55,0000.82,0000.55
2021-12-13 07:22:00,,0823.9,5.01,0.00,25.2,24.4,00.0,34.1,26.9,05.3,0000.0,0002.53,0000.80,0000.55
2021-12-13 07:23:00,,0824.0,4.99,0.00,25.2,24.3,00.0,34.1,27.0,05.3,0000.0,0002.62,0000.84,0000.56
2021-12-13 07:24:00,,0823.9,5.01,0.00,25.2,24.3,00.0,34.1,27.0,05.3,0000.0,0002.72,0000.89,0000.57
2021-12-13 07:25:00,,0824.0,4.99,0.00,25.2,24.3,00.0,34.1,27.0,05.3,0000.0,0002.82,0000.94,0000.58
2021-12-13 07:26:00,,0824.0,4.99,0.00,25.2,24.3,00.0,34.1,27.0,05.3,0000.0,0002.77,0000.94,0000.59
2021-12-13 07:27:00,,0824.0,5.00,0.00,25.2,24.3,00.0,34.1,26.9,05.3,0000.0,0002.41,0000.93,0000.59
2021-12-13 07:28:00,,0824.0,5.00,0.00,25.2,24.3,00.0,34.1,27.0,05.3,0000.0,0002.08,0000.92,0000.59
2021-12-13 07:29:00,,0824.0,5.02,0.00,25.2,24.3,00.0,34.1,27.0,05.3,0000.0,0002.31,0000.90,0000.59
2021-12-13 07:30:00,,0824.0,4.99,0.00,25.2,24.4,00.0,34.1,27.0,05.3,0000.0,0002.06,0000.87,0000.59
2021-12-13 07:31:00,,0824.0,5.01,0.00,25.2,24.4,00.0,34.1,27.0,05.3,0000.0,0002.69,0000.89,0000.59
2021-12-13 07:32:00,,0823.9,5.00,0.00,25.2,24.4,00.0,34.1,27.0,05.3,0000.0,0003.10,0000.93,0000.60
2021-12-13 07:33:00,,0824.0,5.00,0.00,25.2,24.4,00.0,34.1,27.0,05.3,0000.0,0003.60,0000.93,0000.61
2021-12-13 07:34:00,,0824.0,5.01,0.00,25.2,24.4,00.0,34.1,27.0,05.4,0000.0,0005.21,0000.93,0000.61
2021-12-13 07:35:00,,0824.0,4.99,0.00,25.2,24.4,00.0,34.1,27.0,05.4,0000.0,0005.27,0000.93,0000.61
2021-12-13 07:36:00,,0824.0,5.00,0.00,25.2,24.4,00.0,34.1,27.0,05.5,0000.0,0005.28,0000.94,0000.61
2021-12-13 07:37:00,,0824.0,5.01,0.00,25.2,24.3,00.0,34.1,27.0,05.5,0000.0,0005.30,0000.97,0000.62
2021-12-13 07:38:00,,0824.0,4.99,0.00,25.2,24.4,00.0,34.1,27.0,05.5,0000.0,0005.46,0001.00,0000.64
2021-12-13 07:39:00,,0824.0,5.01,0.00,25.2,24.4,00.0,34.1,27.0,05.5,0000.0,0005.68,0001.08,0000.65
2021-12-13 07:40:00,,0824.0,4.99,0.00,25.2,24.3,00.0,34.1,26.9,05.5,0000.0,0005.80,0001.09,0000.65
2021-12-13 07:41:00,,0824.0,5.00,0.00,25.2,24.3,00.0,34.1,26.9,05.6,0000.0,0006.99,0001.20,0000.67
2021-12-13 07:42:00,,0824.0,4.99,0.00,25.2,24.3,00.0,34.1,26.9,05.6,0000.0,0007.56,0001.31,0000.68
2021-12-13 07:43:00,,0824.0,5.01,0.00,25.2,24.3,00.0,34.1,26.9,05.6,0000.0,0007.65,0001.32,0000.69
2021-12-13 07:44:00,,0824.0,4.99,0.00,25.2,24.3,00.0,34.1,26.9,05.6,0000.0,0007.58,0001.38,0000.69
2021-12-13 07:45:00,,0824.0,5.01,0.00,25.2,24.3,00.0,34.1,26.9,05.6,0000.0,0006.12,0001.43,0000.70
2021-12-13 07:46:00,,0824.0,5.00,0.00,25.1,24.3,00.0,34.1,26.9,05.5,0000.0,0006.62,0001.44,0000.72
2021-12-13 07:47:00,,0824.0,5.00,0.00,25.1,24.3,00.0,34.1,26.9,05.5,0000.0,0007.26,0001.43,0000.71
2021-12-13 07:48:00,,0823.9,4.98,0.00,25.1,24.3,00.0,34.1,26.9,05.5,0000.0,0007.38,0001.46,0000.70
2021-12-13 07:49:00,,0824.0,5.02,0.00,25.1,24.3,00.0,34.1,26.9,05.6,0000.0,0007.41,0001.45,0000.69
2021-12-13 07:50:00,,0824.0,4.98,0.00,25.1,24.3,00.0,34.1,26.9,05.6,0000.0,0007.99,0001.41,0000.68
2021-12-13 07:51:00,,0824.0,5.01,0.00,25.1,24.3,00.0,34.1,26.9,05.5,0000.0,0007.73,0001.42,0000.70
2021-12-13 07:52:00,,0824.0,4.99,0.00,25.1,24.3,00.0,34.1,26.9,05.5,0000.0,0006.87,0001.33,0000.69
2021-12-13 07:53:00,,0824.0,5.00,0.00,25.1,24.3,00.0,34.1,26.9,05.5,0000.0,0005.51,0001.22,0000.68
2021-12-13 07:54:00,,0824.0,5.00,0.00,25.2,24.3,00.0,34.1,26.9,05.5,0000.0,0004.98,0001.25,0000.68
2021-12-13 07:55:00,,0824.0,4.99,0.00,25.2,24.3,00.0,34.1,26.9,05.5,0000.0,0004.96,0001.21,0000.68
2021-12-13 07:56:00,,0824.0,5.01,0.00,25.1,24.3,00.0,34.1,27.0,05.4,0000.0,0005.01,0001.20,0000.67
2021-12-13 07:57:00,,0824.0,4.99,0.00,25.1,24.3,00.0,34.1,26.9,05.4,0000.0,0004.50,0001.17,0000.66
2021-12-13 07:58:00,,0824.0,5.01,0.00,25.1,24.3,00.0,34.1,26.9,05.4,0000.0,0003.78,0001.17,0000.66
2021-12-13 07:59:00,,0823.9,5.00,0.00,25.1,24.3,00.0,34.1,26.9,05.4,0000.0,0003.75,0001.17,0000.66
